| time (UTC) | temp C | wind direction | speed KPH | gust KPH | rain 1hr cm | rain 24hr cm | rain mn cm | humidity % | barometer mb |
| 20260503030104 | 20 | 100 | 6.4 | 12.9 | 0.00 | 0.00 | 0.00 | 38 | 1008.1 |
| 20260503025103 | 21 | 125 | 3.2 | 8.0 | 0.00 | 0.00 | 0.00 | 35 | 1008.0 |
| 20260503024104 | 22 | 99 | 3.2 | 8.0 | 0.00 | 0.00 | 0.00 | 33 | 1008.0 |
| 20260503023103 | 23 | 89 | 1.6 | 4.8 | 0.00 | 0.00 | 0.00 | 31 | 1007.9 |
| 20260503022104 | 25 | 134 | 0.0 | 0.0 | 0.00 | 0.00 | 0.00 | 31 | 1007.9 |
| 20260503020104 | 25 | 344 | 3.2 | 4.8 | 0.00 | 0.00 | 0.00 | 22 | 1008.2 |
| 20260503015103 | 25 | 317 | 3.2 | 4.8 | 0.00 | 0.00 | 0.00 | 21 | 1008.3 |
| 20260503014103 | 26 | 338 | 3.2 | 4.8 | 0.00 | 0.00 | 0.00 | 20 | 1008.3 |
| 20260503013103 | 26 | 342 | 1.6 | 8.0 | 0.00 | 0.00 | 0.00 | 21 | 1008.4 |
| 20260503011104 | 26 | 308 | 3.2 | 4.8 | 0.00 | 0.00 | 0.00 | 19 | 1008.5 |
| 20260503010103 | 27 | 332 | 4.8 | 8.0 | 0.00 | 0.00 | 0.00 | 19 | 1008.5 |
| 20260503005103 | 27 | 334 | 3.2 | 8.0 | 0.00 | 0.00 | 0.00 | 18 | 1008.5 |
| 20260503004104 | 27 | 349 | 4.8 | 8.0 | 0.00 | 0.00 | 0.00 | 17 | 1008.5 |
| 20260503003104 | 27 | 332 | 4.8 | 11.3 | 0.00 | 0.00 | 0.00 | 18 | 1008.5 |
| 20260503002103 | 27 | 10 | 6.4 | 9.7 | 0.00 | 0.00 | 0.00 | 19 | 1008.5 |
| 20260503000104 | 27 | 315 | 3.2 | 9.7 | 0.00 | 0.00 | 0.00 | 20 | 1008.6 |
| 20260502235103 | 27 | 331 | 8.0 | 11.3 | 0.00 | 0.00 | 0.00 | 19 | 1008.8 |
| 20260502234103 | 27 | 304 | 4.8 | 11.3 | 0.00 | 0.00 | 0.00 | 18 | 1008.9 |
| 20260502233103 | 28 | 314 | 6.4 | 11.3 | 0.00 | 0.00 | 0.00 | 17 | 1009.0 |
| 20260502232103 | 28 | 332 | 6.4 | 11.3 | 0.00 | 0.00 | 0.00 | 16 | 1009.0 |
| 20260502225103 | 28 | 8 | 1.6 | 8.0 | 0.00 | 0.00 | 0.00 | 16 | 1009.5 |
| 20260502224104 | 27 | 8 | 3.2 | 9.7 | 0.00 | 0.00 | 0.00 | 19 | 1009.6 |
| 20260502223103 | 27 | 322 | 4.8 | 11.3 | 0.00 | 0.00 | 0.00 | 19 | 1009.6 |
| 20260502222104 | 27 | 334 | 4.8 | 9.7 | 0.00 | 0.00 | 0.00 | 22 | 1009.8 |
| 20260502221104 | 27 | 321 | 3.2 | 9.7 | 0.00 | 0.00 | 0.00 | 21 | 1010.0 |
| 20260502220104 | 27 | 16 | 4.8 | 11.3 | 0.00 | 0.00 | 0.00 | 22 | 1010.0 |
| 20260502215104 | 27 | 0 | 4.8 | 11.3 | 0.00 | 0.00 | 0.00 | 22 | 1010.1 |
| 20260502214104 | 27 | 311 | 4.8 | 8.0 | 0.00 | 0.00 | 0.00 | 23 | 1010.3 |
| 20260502213104 | 27 | 299 | 4.8 | 8.0 | 0.00 | 0.00 | 0.00 | 23 | 1010.6 |
| 20260502212104 | 27 | 9 | 3.2 | 9.7 | 0.00 | 0.00 | 0.00 | 24 | 1010.6 |
| 20260502211104 | 27 | 305 | 3.2 | 11.3 | 0.00 | 0.00 | 0.00 | 24 | 1010.7 |
| 20260502210104 | 26 | 47 | 4.8 | 9.7 | 0.00 | 0.00 | 0.00 | 24 | 1010.9 |
| 20260502204104 | 26 | 11 | 4.8 | 8.0 | 0.00 | 0.00 | 0.00 | 27 | 1011.1 |
| 20260502203103 | 26 | 358 | 6.4 | 9.7 | 0.00 | 0.00 | 0.00 | 26 | 1011.2 |
| 20260502202103 | 26 | 223 | 1.6 | 8.0 | 0.00 | 0.00 | 0.00 | 27 | 1011.3 |
| 20260502201104 | 25 | 208 | 1.6 | 4.8 | 0.00 | 0.00 | 0.00 | 30 | 1011.5 |
| 20260502200104 | 25 | 122 | 3.2 | 8.0 | 0.00 | 0.00 | 0.00 | 31 | 1011.6 |
| 20260502195104 | 25 | 277 | 3.2 | 4.8 | 0.00 | 0.00 | 0.00 | 30 | 1011.8 |
| 20260502194104 | 24 | 184 | 1.6 | 8.0 | 0.00 | 0.00 | 0.00 | 31 | 1011.9 |
| 20260502193103 | 23 | 330 | 4.8 | 9.7 | 0.00 | 0.00 | 0.00 | 29 | 1012.0 |
| 20260502192104 | 23 | 37 | 3.2 | 8.0 | 0.00 | 0.00 | 0.00 | 29 | 1012.2 |
| 20260502185104 | 23 | 333 | 3.2 | 8.0 | 0.00 | 0.00 | 0.00 | 31 | 1012.5 |
| 20260502184104 | 23 | 271 | 3.2 | 9.7 | 0.00 | 0.00 | 0.00 | 30 | 1012.7 |
| 20260502182103 | 23 | 191 | 1.6 | 4.8 | 0.00 | 0.00 | 0.00 | 31 | 1012.9 |
| 20260502181103 | 22 | 175 | 3.2 | 4.8 | 0.00 | 0.00 | 0.00 | 32 | 1012.9 |
| 20260502180104 | 22 | 183 | 3.2 | 8.0 | 0.00 | 0.00 | 0.00 | 34 | 1013.1 |
| 20260502170104 | 19 | 312 | 3.2 | 9.7 | 0.00 | 0.00 | 0.00 | 38 | 1013.6 |
| 20260502164104 | 18 | 241 | 3.2 | 4.8 | 0.00 | 0.00 | 0.00 | 40 | 1013.7 |
| 20260502163104 | 18 | 276 | 3.2 | 8.0 | 0.00 | 0.00 | 0.00 | 42 | 1013.7 |
| 20260502162103 | 17 | 338 | 1.6 | 4.8 | 0.00 | 0.00 | 0.00 | 43 | 1013.7 |
| 20260502161103 | 17 | 326 | 1.6 | 4.8 | 0.00 | 0.00 | 0.00 | 44 | 1013.7 |
| 20260502152104 | 13 | 61 | 0.0 | 3.2 | 0.00 | 0.00 | 0.00 | 58 | 1013.7 |
| 20260502151103 | 12 | 327 | 0.0 | 1.6 | 0.00 | 0.00 | 0.00 | 59 | 1013.8 |
| 20260502150103 | 11 | 9 | 0.0 | 0.0 | 0.00 | 0.00 | 0.00 | 61 | 1013.7 |
| 20260502140104 | 8 | 171 | 0.0 | 3.2 | 0.00 | 0.00 | 0.00 | 67 | 1013.3 |
| 20260502130104 | 8 | 143 | 0.0 | 3.2 | 0.00 | 0.00 | 0.00 | 64 | 1013.1 |
| 20260502122104 | 8 | 175 | 3.2 | 4.8 | 0.00 | 0.00 | 0.00 | 61 | 1012.9 |
| 20260502121105 | 9 | 161 | 0.0 | 0.0 | 0.00 | 0.00 | 0.00 | 60 | 1012.8 |
| 20260502120104 | 9 | 158 | 0.0 | 4.8 | 0.00 | 0.00 | 0.00 | 60 | 1012.8 |
| 20260502115104 | 9 | 204 | 3.2 | 4.8 | 0.00 | 0.00 | 0.00 | 60 | 1012.8 |
| 20260502114103 | 9 | 170 | 0.0 | 3.2 | 0.00 | 0.00 | 0.00 | 60 | 1012.8 |
| 20260502113104 | 9 | 170 | 0.0 | 3.2 | 0.00 | 0.00 | 0.00 | 56 | 1012.8 |
| 20260502112104 | 10 | 159 | 0.0 | 3.2 | 0.00 | 0.00 | 0.00 | 56 | 1012.8 |
| 20260502111104 | 10 | 155 | 0.0 | 3.2 | 0.00 | 0.00 | 0.00 | 56 | 1012.8 |
| 20260502105104 | 10 | 66 | 0.0 | 1.6 | 0.00 | 0.00 | 0.00 | 57 | 1012.7 |
| 20260502104103 | 10 | 78 | 0.0 | 4.8 | 0.00 | 0.00 | 0.00 | 55 | 1012.8 |
| 20260502102104 | 10 | 140 | 0.0 | 0.0 | 0.00 | 0.00 | 0.00 | 55 | 1012.7 |
| 20260502100104 | 11 | 175 | 3.2 | 4.8 | 0.00 | 0.00 | 0.00 | 55 | 1012.7 |
| 20260502091104 | 13 | 183 | 1.6 | 4.8 | 0.00 | 0.00 | 0.00 | 46 | 1012.6 |
| 20260502090104 | 13 | 173 | 0.0 | 1.6 | 0.00 | 0.00 | 0.00 | 43 | 1012.6 |
| 20260502080103 | 15 | 304 | 0.0 | 0.0 | 0.00 | 0.00 | 0.00 | 40 | 1012.9 |
| 20260502071103 | 15 | 44 | 1.6 | 4.8 | 0.00 | 0.00 | 0.00 | 38 | 1013.1 |
| 20260502070104 | 16 | 46 | 1.6 | 4.8 | 0.00 | 0.00 | 0.00 | 38 | 1013.1 |
| 20260502065103 | 16 | 38 | 0.0 | 8.0 | 0.00 | 0.00 | 0.00 | 37 | 1013.1 |
| 20260502064103 | 16 | 57 | 1.6 | 8.0 | 0.00 | 0.00 | 0.00 | 37 | 1013.0 |
| 20260502063104 | 16 | 61 | 0.0 | 1.6 | 0.00 | 0.00 | 0.00 | 38 | 1013.1 |
| 20260502062103 | 16 | 40 | 3.2 | 9.7 | 0.00 | 0.00 | 0.00 | 36 | 1013.1 |
| 20260502061104 | 16 | 47 | 3.2 | 9.7 | 0.00 | 0.00 | 0.00 | 36 | 1012.9 |
| 20260502060104 | 16 | 44 | 4.8 | 11.3 | 0.00 | 0.00 | 0.00 | 37 | 1013.1 |
| 20260502055103 | 16 | 43 | 3.2 | 4.8 | 0.00 | 0.00 | 0.00 | 38 | 1013.2 |
| 20260502054104 | 16 | 57 | 1.6 | 9.7 | 0.00 | 0.00 | 0.00 | 39 | 1013.2 |
| 20260502053103 | 15 | 47 | 3.2 | 4.8 | 0.00 | 0.00 | 0.00 | 41 | 1013.2 |
| 20260502052106 | 15 | 88 | 0.0 | 3.2 | 0.00 | 0.00 | 0.00 | 43 | 1013.2 |
| 20260502045104 | 15 | 110 | 3.2 | 8.0 | 0.00 | 0.00 | 0.00 | 40 | 1013.2 |
| 20260502044103 | 15 | 110 | 0.0 | 8.0 | 0.00 | 0.00 | 0.00 | 41 | 1013.1 |
| 20260502043104 | 15 | 101 | 3.2 | 4.8 | 0.00 | 0.00 | 0.00 | 43 | 1013.2 |
| 20260502042103 | 16 | 120 | 0.0 | 1.6 | 0.00 | 0.00 | 0.00 | 42 | 1013.2 |
| 20260502041104 | 16 | 122 | 0.0 | 3.2 | 0.00 | 0.00 | 0.00 | 42 | 1013.2 |
| 20260502040104 | 16 | 98 | 0.0 | 3.2 | 0.00 | 0.00 | 0.00 | 41 | 1013.2 |
| 20260502035104 | 16 | 103 | 1.6 | 8.0 | 0.00 | 0.00 | 0.00 | 40 | 1013.1 |
| 20260502034103 | 16 | 83 | 4.8 | 12.9 | 0.00 | 0.00 | 0.00 | 40 | 1012.9 |
| 20260502033104 | 16 | 90 | 3.2 | 11.3 | 0.00 | 0.00 | 0.00 | 39 | 1012.9 |
| 20260502032104 | 16 | 84 | 3.2 | 14.5 | 0.00 | 0.00 | 0.00 | 38 | 1012.8 |
| 20260502031103 | 17 | 101 | 4.8 | 12.9 | 0.00 | 0.00 | 0.00 | 37 | 1012.8 |